When you browse on this site, cookies collect data to enhance your experience and personalize the content and advertising you see.
Visit our Privacy Policy to learn more. By continuing to use the site, you agree to this use of cookies and data.
  • In Sweden
  • List of Countries
  • For 7 days
  • Water Temperature
  • Weather Map
  • Weather Widgets
  • user-avatar
    Login

    Hourly Weather Агилар де Эбро

    Today, 21 November, Thursday

    Time Temperature Precipitation Wind Pressure Humidity
    00:00 +9°C° 0.1 mm 1 mps 736 mmHg 80%
    01:00 +9°C° 0 mm 1 mps 736 mmHg 80%
    02:00 +9°C° 0 mm 1 mps 735 mmHg 79%
    03:00 +9°C° 0 mm 1 mps 735 mmHg 79%
    04:00 +9°C° 0 mm 1 mps 735 mmHg 81%
    05:00 +8°C° 0 mm 1 mps 735 mmHg 82%
    06:00 +8°C° 0 mm 1 mps 735 mmHg 84%
    07:00 +8°C° 0 mm 2 mps 735 mmHg 79%
    08:00 +8°C° 0 mm 2 mps 736 mmHg 74%
    09:00 +9°C° 0 mm 2 mps 736 mmHg 70%
    10:00 +11°C° 0 mm 3 mps 736 mmHg 64%
    11:00 +12°C° 0 mm 4 mps 735 mmHg 58%
    12:00 +13°C° 0 mm 4 mps 735 mmHg 52%
    13:00 +13°C° 0 mm 5 mps 735 mmHg 51%
    14:00 +14°C° 0 mm 5 mps 735 mmHg 50%
    15:00 +14°C° 0 mm 5 mps 735 mmHg 49%
    16:00 +13°C° 0 mm 4 mps 735 mmHg 55%
    17:00 +11°C° 0 mm 3 mps 735 mmHg 60%
    18:00 +10°C° 0 mm 2 mps 735 mmHg 66%
    19:00 +9°C° 0 mm 2 mps 735 mmHg 68%
    20:00 +9°C° 0 mm 2 mps 736 mmHg 70%
    21:00 +10°C° 0 mm 1 mps 736 mmHg 72%
    22:00 +9°C° 0 mm 2 mps 735 mmHg 72%
    23:00 +9°C° 0 mm 2 mps 735 mmHg 72%

    Tomorrow, 22 November, Friday

    Time Temperature Precipitation Wind Pressure Humidity
    00:00 +9°C° 0 mm 2 mps 735 mmHg 72%
    01:00 +9°C° 0 mm 2 mps 735 mmHg 72%
    02:00 +9°C° 0 mm 3 mps 734 mmHg 72%
    03:00 +9°C° 0 mm 3 mps 733 mmHg 72%
    04:00 +8°C° 0.3 mm 4 mps 733 mmHg 74%
    05:00 +7°C° 0.3 mm 4 mps 732 mmHg 77%
    06:00 +7°C° 0.3 mm 4 mps 732 mmHg 80%
    07:00 +7°C° 0.4 mm 4 mps 732 mmHg 80%
    08:00 +7°C° 0.4 mm 4 mps 732 mmHg 81%
    09:00 +7°C° 0.4 mm 4 mps 731 mmHg 81%
    10:00 +8°C° 0.5 mm 5 mps 730 mmHg 83%
    11:00 +8°C° 0.5 mm 5 mps 729 mmHg 85%
    12:00 +9°C° 0.5 mm 6 mps 728 mmHg 86%
    13:00 +9°C° 1.1 mm 7 mps 727 mmHg 87%
    14:00 +9°C° 1.1 mm 7 mps 726 mmHg 88%
    15:00 +9°C° 1.1 mm 8 mps 725 mmHg 89%
    16:00 +10°C° 0.8 mm 7 mps 724 mmHg 86%
    17:00 +11°C° 0.8 mm 7 mps 724 mmHg 82%
    18:00 +11°C° 0.8 mm 7 mps 723 mmHg 78%
    19:00 +11°C° 0 mm 6 mps 723 mmHg 76%
    20:00 +11°C° 0 mm 6 mps 723 mmHg 75%
    21:00 +12°C° 0 mm 5 mps 723 mmHg 73%
    22:00 +10°C° 0 mm 5 mps 723 mmHg 72%
    23:00 +10°C° 0 mm 6 mps 723 mmHg 70%

    Day after tomorrow, 23 November, Saturday

    Time Temperature Precipitation Wind Pressure Humidity
    00:00 +10°C° 0 mm 6 mps 723 mmHg 69%
    01:00 +10°C° 0 mm 7 mps 723 mmHg 70%
    02:00 +10°C° 0 mm 7 mps 723 mmHg 70%
    03:00 +10°C° 0 mm 8 mps 723 mmHg 70%
    04:00 +10°C° 0.4 mm 8 mps 724 mmHg 74%
    05:00 +9°C° 0.4 mm 7 mps 724 mmHg 78%
    06:00 +9°C° 0.4 mm 7 mps 725 mmHg 83%
    07:00 +8°C° 0.6 mm 9 mps 726 mmHg 77%
    08:00 +8°C° 0.6 mm 11 mps 727 mmHg 70%
    09:00 +8°C° 0.6 mm 14 mps 728 mmHg 64%
    10:00 +8°C° 0 mm 14 mps 728 mmHg 61%
    11:00 +9°C° 0 mm 14 mps 729 mmHg 59%
    12:00 +10°C° 0 mm 14 mps 729 mmHg 56%
    13:00 +9°C° 0 mm 14 mps 730 mmHg 58%
    14:00 +9°C° 0 mm 14 mps 730 mmHg 60%
    15:00 +9°C° 0 mm 13 mps 730 mmHg 62%
    16:00 +8°C° 0 mm 12 mps 731 mmHg 64%
    17:00 +8°C° 0 mm 10 mps 732 mmHg 66%
    18:00 +8°C° 0 mm 9 mps 733 mmHg 67%
    19:00 +7°C° 0 mm 9 mps 734 mmHg 69%
    20:00 +7°C° 0 mm 9 mps 735 mmHg 70%
    21:00 +7°C° 0 mm 9 mps 736 mmHg 71%
    22:00 +7°C° 0 mm 9 mps 736 mmHg 71%
    23:00 +7°C° 0 mm 9 mps 737 mmHg 71%

    24 November, Sunday

    Time Temperature Precipitation Wind Pressure Humidity
    00:00 +7°C° 0 mm 10 mps 737 mmHg 71%
    01:00 +7°C° 0 mm 9 mps 737 mmHg 72%
    02:00 +7°C° 0 mm 9 mps 737 mmHg 73%
    03:00 +6°C° 0 mm 9 mps 738 mmHg 74%
    04:00 +6°C° 0 mm 9 mps 738 mmHg 75%
    05:00 +6°C° 0 mm 9 mps 738 mmHg 75%
    06:00 +6°C° 0 mm 9 mps 739 mmHg 75%
    07:00 +7°C° 0 mm 9 mps 739 mmHg 73%
    08:00 +7°C° 0 mm 10 mps 740 mmHg 71%
    09:00 +8°C° 0 mm 10 mps 740 mmHg 69%
    10:00 +9°C° 0 mm 10 mps 740 mmHg 66%
    11:00 +11°C° 0 mm 10 mps 741 mmHg 63%
    12:00 +12°C° 0 mm 10 mps 741 mmHg 60%
    13:00 +12°C° 0 mm 9 mps 741 mmHg 60%
    14:00 +12°C° 0 mm 9 mps 741 mmHg 60%
    15:00 +11°C° 0 mm 8 mps 741 mmHg 60%
    16:00 +11°C° 0 mm 7 mps 741 mmHg 63%
    17:00 +10°C° 0 mm 5 mps 741 mmHg 66%
    18:00 +10°C° 0 mm 4 mps 742 mmHg 69%
    19:00 +8°C° 0 mm 4 mps 742 mmHg 69%
    20:00 +9°C° 0 mm 3 mps 742 mmHg 69%
    21:00 +9°C° 0 mm 3 mps 743 mmHg 69%
    22:00 +8°C° 0 mm 3 mps 743 mmHg 69%
    23:00 +8°C° 0 mm 3 mps 743 mmHg 69%

    25 November, Monday

    Time Temperature Precipitation Wind Pressure Humidity
    00:00 +8°C° 0 mm 3 mps 743 mmHg 68%
    01:00 +7°C° 0 mm 3 mps 743 mmHg 69%
    02:00 +7°C° 0 mm 2 mps 743 mmHg 70%
    03:00 +7°C° 0 mm 2 mps 742 mmHg 71%
    04:00 +7°C° 0 mm 2 mps 742 mmHg 70%
    05:00 +7°C° 0 mm 2 mps 742 mmHg 70%
    06:00 +7°C° 0 mm 2 mps 742 mmHg 70%
    07:00 +8°C° 0 mm 2 mps 743 mmHg 68%
    08:00 +9°C° 0 mm 2 mps 743 mmHg 66%
    09:00 +10°C° 0 mm 2 mps 743 mmHg 64%
    10:00 +12°C° 0 mm 2 mps 743 mmHg 61%
    11:00 +12°C° 0 mm 3 mps 743 mmHg 59%
    12:00 +13°C° 0 mm 3 mps 743 mmHg 57%
    13:00 +14°C° 0 mm 3 mps 743 mmHg 58%
    14:00 +16°C° 0 mm 3 mps 743 mmHg 58%
    15:00 +16°C° 0 mm 3 mps 742 mmHg 59%
    16:00 +14°C° 0 mm 3 mps 743 mmHg 64%
    17:00 +14°C° 0 mm 2 mps 743 mmHg 69%
    18:00 +12°C° 0 mm 2 mps 743 mmHg 74%
    19:00 +12°C° 0 mm 2 mps 743 mmHg 75%
    20:00 +12°C° 0 mm 2 mps 744 mmHg 75%
    21:00 +12°C° 0 mm 2 mps 744 mmHg 76%
    22:00 +10°C° 0 mm 2 mps 744 mmHg 77%
    23:00 +11°C° 0 mm 1 mps 744 mmHg 78%

    26 November, Tuesday

    Time Temperature Precipitation Wind Pressure Humidity
    00:00 +11°C° 0 mm 1 mps 744 mmHg 80%
    01:00 +11°C° 0 mm 1 mps 743 mmHg 81%
    02:00 +10°C° 0 mm 1 mps 743 mmHg 82%
    03:00 +10°C° 0 mm 1 mps 743 mmHg 84%
    04:00 +10°C° 0 mm 1 mps 742 mmHg 84%
    05:00 +10°C° 0 mm 1 mps 742 mmHg 84%
    06:00 +9°C° 0 mm 1 mps 742 mmHg 85%
    07:00 +11°C° 0 mm 1 mps 742 mmHg 81%
    08:00 +12°C° 0 mm 2 mps 742 mmHg 77%
    09:00 +13°C° 0 mm 2 mps 742 mmHg 74%
    10:00 +14°C° 0 mm 2 mps 742 mmHg 70%
    11:00 +16°C° 0 mm 2 mps 741 mmHg 66%
    12:00 +17°C° 0 mm 2 mps 741 mmHg 62%
    13:00 +17°C° 0 mm 2 mps 741 mmHg 63%
    14:00 +17°C° 0 mm 2 mps 740 mmHg 63%
    15:00 +17°C° 0 mm 2 mps 740 mmHg 64%
    16:00 +16°C° 0 mm 2 mps 740 mmHg 68%
    17:00 +15°C° 0 mm 2 mps 740 mmHg 72%
    18:00 +14°C° 0 mm 2 mps 740 mmHg 76%
    19:00 +14°C° 0 mm 2 mps 740 mmHg 78%
    20:00 +14°C° 0 mm 2 mps 740 mmHg 80%
    21:00 +14°C° 0 mm 2 mps 740 mmHg 82%
    22:00 +14°C° 0 mm 2 mps 740 mmHg 81%
    23:00 +14°C° 0 mm 2 mps 740 mmHg 80%
    Show more